Погода в Казачинске

Погода в Казачинске : погода сейчас, прогноз погоды и архив. Всё, что Вы хотите узнать о погоде в Казачинске!

Хотите узнать прогноз погоды в Казачинске? Тогда Вам сюда: Погода в Казачинске

Поиск расширенной информации на нашем сайте:

Другие новости

Новости СМИ2

Главная страница сайта

Новости сайта

02.10.2013

Напоминаем, что на нашем новом сайте вы можете получить высокодетализированные прогнозы погоды по пунктам России, СНГ и мира (включающие важные для авиации метеовеличины, такие как направление и скорость ветра, видимость, явления погоды, количество и форма облачности, нижняя и верхняя граница облачности), а также ознакомиться с разнообразными материалами по авиационной метеорологии и подборкой полезных ссылок на эту тему.

Сайт Метеоцентр.Азия посвящён разработке технологий оптимизации авиаметеорологического обслуживания, включая проектирование и перспективное создание нескольких автоматизированных авиаметеорологических систем:
- система выпуска высокодетальных прогностических карт явлений погоды для нижнего воздушного пространства по России и ближнему зарубежью;
- система верификации прогнозов TAF (выпускаемых синоптиками официальных АМСГ РФ и ближнего зарубежья) и AUTOTAF (выпускаемых сайтом Метеоцентр.Азия) - выявление ошибок, онлайн-сопоставление с фактической погодой METAR, автоматическое внесение коррективов в прогнозы при резком отклонении фактической погоды от прогноза, подсчёт оправдываемости прогнозов по элементам и в целом;
- система обработки, анализа и отображения авиаметеорологической информации для применения провайдерами метеорологической информации.

Рекомендуем: Только отдых в тунисе можно назвать полноценным отдыхом души и тела.

Погода в Казачинске - сегодня

Время (UTC), дата Ветер
(°,м/с) 
Видим.   Явления Облачность Т
(°С)
Тd
(°С)
f(%) Тe
(°С)
Pmin
(гПа)
dP
(гПа)
Po
(мм)
O2
(г/м3)
Тmin Tmax R s Состояние
почвы
18 27.04.17 320 (СЗ) н/о    10/5 600 м кучево-дожд., верхняя 
[Cb cap|Cs]
+4.7 +2.4 85 +6  1011.3  -2.6  726  287           
21 27.04.17 220 (ЮЗ) н/о    10/10 600 м кучево-дожд. 
[Cb cap]
+6.6 +2 72 +6  1007.1  -3.7  723  284           
00 28.04.17 230 (ЮЗ) 20000 м    10/3 600 м кучево-дожд., верхняя 
[Cb cap|Cs]
+8.2 +2.2 66 +8  1004.8  -2  722  282  +3.5         
03 28.04.17 190 (Ю) 20000 м    9/9 600 м кучево-дожд. 
[Cb cap]
+17.9 +0.5 31 +18  999.7  -3.5  719  272           
06 28.04.17 220 (ЮЗ) 8{16}  20000 м    10/5 600 м кучево-дожд., верхняя 
[Cb cap|Cs]
+21.4 -2.4 20 +21  998  -1.2  718  269           
09 28.04.17 220 (ЮЗ) 8{18}  20000 м    9/0 верхняя 
[Ci fib]
+19.8 -5.4 18 +20  1000.3  720  271           
12 28.04.17 320 (СЗ) 6{12}  20000 м    1/0 верхняя 
[Ci fib]
+15.3 -9.6 17 +15  1004.8  3.7  723  277    +23.5       
15 28.04.17 030 (СВ) 3{12}  н/о    ясно 
+9.2 -10.3 24 +9  1011.3  5.3  727  284           
18 28.04.17 330 (СЗ) н/о    ясно 
+0.2 -10.1 46 -2  1015.5  2.7  729  294           
21 28.04.17 350 (С) н/о    ясно 
-2.9 -8.8 64 -2  1017.3  1.2  729  298           
00 29.04.17 160 (Ю) 20000 м    1/0 верхняя 
[Ci fib]
+4 -9.3 37 +5  1017.2  730  291  -4.2         
03 29.04.17 140 (ЮВ) 20000 м    10/0 верхняя 
[Cs]
+9.2 -8.8 27 +9  1015.2  -1.1  729  285           
06 29.04.17 170 (Ю) 20000 м    10/0 верхняя 
[Cs]
+12.5 -9.5 21 +12  1011.8  -2.8  727  281           
09 29.04.17 200 (Ю) 20000 м    6/0 верхняя 
[Ci fib]
+15.2 -13.1 13 +15  1009  -2.3  726  278           
12 29.04.17 180 (Ю) 20000 м    3/0 верхняя 
[Ci fib]
+12.2 -14 15 +13  1008.5  -0.9  725  281    +15.4       
15 29.04.17 310 (СЗ) н/о    3/0 верхняя 
[Ci fib]
+0.9 -7.7 53 +2  1010.4  0.1  725  292           
18 29.04.17 290 (З) н/о    3/0 верхняя 
[Ci fib]
-0.4 -7.8 57 1010.5  0.1  725  293           
21 29.04.17 000 (С) 19  н/о    6/0 верхняя 
[Ci fib]
-4.9   1009.8  -0.3  725             
00 30.04.17 200 (Ю) 20000 м    10/8 600 м кучево-дожд., верхняя 
[Cb cap|Cs]
+7.2 -0.2 59 +5  1008.2  -0.7  724  284  -1.2         
03 30.04.17 260 (З) 4{10}  20000 м    10/8 600 м кучево-дожд., верхняя 
[Cb cap|Cs]
+12.5 +1.7 48 +12  1007  -0.4  724  279           
06 30.04.17 270 (З) 6-13{15}  20000 м  {ливн. осадки}  10/8 600 м кучево-дожд., верхняя 
[Cb cap|Cs]
+12.6 +1.3 46 +12  1008.1  1.1  725  279           
09 30.04.17 320 (СЗ) 3{13}  20000 м    10/8 600 м кучево-дожд., верхняя 
[Cb cap|Cs]
+10.7 +1.6 53 +10  1008.5  0.2  725  281           
12 30.04.17 260 (З) 20000 м    10/4 600 м кучево-дожд., верхняя 
[Cb cap|Cs]
+10.7 -1.9 41 +11  1008.4  -0.2  725  281    +14.3  0.0     
15 30.04.17 230 (ЮЗ) н/о    10/6 600 м кучево-дожд., верхняя 
[Cb cap|Cs]
+5.9 -1 61 +6  1009.1  -0.1  725  286           
18 30.04.17 тихо ()   н/о    10/4 600 м кучево-дожд., верхняя 
[Cb cap|Cs]
+3.2 -1.2 73 +3  1010.5  725  289           
Время (UTC), дата Ветер
(°,м/с) 
Видим.   Явления Облачность Т
(°С)
Тd
(°С)
f(%) Тe
(°С)
Pmin
(гПа)
dP
(гПа)
Po
(мм)
O2
(г/м3)
Тmin Tmax R s Состояние
почвы

Для получения пояснительной информации подведите курсор к названию столбца.

ПОГОДА в Казачинске - архив

Всё, что Вы хотите узнать о погоде в Казачинске - удобно и подробно!

Выберите нужную дату (начиная с 1 января 2015* года) и нажмите кнопку "Найти".
Будут отображены архивные сводки погоды по пункту Казачинск, начиная с указанной даты.


Отображать данные в формате CSV (для использования в таблицах Excel)


Внимание! Наш архив погоды предназначен исключительно для личного некоммерческого использования в познавательных целях. Если Вам необходимы официальные справки о состоянии погоды (для производственных, юридических, коммерческих и т.п. целей), обращайтесь в органы Росгидромета.

*Примечание: данная дата относится к архиву по метеостанциям СССР (Россия, СНГ, Балтия).
Архив по метеостанциям Зарубежной Европы и Азии (кроме Китая) хранится 10 дней, по другим регионам земного шара (Китай, Африка, Америка, Австралия, Океания) - 1 день.

Казачинск - район местоположения метеостанции


Название, широта, долгота, высота метеостанции:
Казачинск 56.3°ш. 107.6°д. 362 м над ур. моря [Российская Федерация]

Дополнительная информация

В oтличие oт бoльшинства пoгoдных сайтoв мы публикуем пoдрoбную метеoинфoрмацию в детальнoм прoфессиoнальнoм фoрмате.

Характеристики температуры и влажнoсти вoздуха измеряются на высoте 2 м в тени вдали oт зданий и деревьев.
Скoрoсть ветра измеряется на высoте 10 м (на урoвне рoста челoвека скoрoсть ветра ниже в 1.5-2 раза). Если метеoстанция нахoдится в гoрoде или в лесу, тo скoрoсть ветра занижена на 2-4 м/с пo сравнению с oткрытым местoм. Скoрoсть ветра над акватoриями крупных рек и oзёр, а также на вершинах хoлмoв на 2-5 м/с выше, чем в oбычных услoвиях.
Атмoсфернoе давление в разных тoчках местнoсти мoжет значительнo oтличаться oт давления на метеoстанции, в зависимoсти oт услoвий рельефа (при пoдъёме на 10 м давление пoнижается примернo на 1 мм рт.ст.).